Regional Weather Roundup
Issued by NWS

Home | Current Version | Previous Version | Graphics & Text | Print | Product List | Glossary On
Versions: 1 2 3 4 5 6 7 8 9 10 11 12 13 14 15 16 17 18 19 20 21 22 23 24 25 26 27 28 29 30 31 32 33 34 35 36 37 38 39 40 41 42 43 44 45 46 47 48 49 50
000
ASUS43 KDTX 301710
RWRMI
MICHIGAN HOURLY REGIONAL WEATHER ROUNDUP
NATIONAL WEATHER SERVICE DETROIT/PONTIAC MI
100 PM EDT TUE JUN 30 2015

NOTE: "FAIR" INDICATES FEW OR NO CLOUDS BELOW 12,000 FEET WITH NO
SIGNIFICANT WEATHER AND/OR OBSTRUCTION TO VISIBILITY.

MIZ047>049-052>055-059>063-066>070-074>076-081>083-301800-
SOUTHEAST LOWER MICHIGAN

CITY           SKY/WX    TMP DP  RH WIND       PRES   REMARKS
ADRIAN         CLOUDY    70  61  73 W6        29.81F
ALMA           CLOUDY    70  60  72 CALM      29.80F
ANN ARBOR      PTSUNNY   72  61  68 W5        29.79F
BAD AXE        CLOUDY    65  58  76 CALM      29.82S
CARO           CLOUDY    68  58  69 CALM      29.80F
DETROIT CITY   CLOUDY    70  60  70 SW5       29.79F
DETROIT        CLOUDY    73  60  63 VRB5      29.80S
FLINT          PTSUNNY   73  60  63 CALM      29.79F
GROSSE ILE     CLOUDY    70  64  83 S7        29.79S
HILLSDALE      CLOUDY    67  64  89 S3        29.82S
HOWELL         CLOUDY    70  60  70 S3        29.80S

CITY           SKY/WX    TMP DP  RH WIND       PRES   REMARKS
JACKSON        CLOUDY    67  61  81 S7        29.81S
LAMBERTVILLE   CLOUDY    73  61  65 CALM      29.81S
LANSING        CLOUDY    70  59  68 S6        29.80F
LAPEER         CLOUDY    68  58  69 CALM      29.80F
MASON          CLOUDY    66  58  76 CALM      29.80S
MONROE         CLOUDY    73  61  67 SW8       29.79S
MT. CLEMENS    PTSUNNY   67  62  84 E5        29.78S
PONTIAC        CLOUDY    69  60  73 S5        29.79F
PORT HOPE        N/A     63  57  81 E7        29.81F
PORT HURON     CLOUDY    66  61  82 CALM      29.79F
TRI CITIES     CLOUDY    71  58  63 CALM      29.80F
MIDLAND        CLOUDY    69  58  67 CALM      29.79F
TROY           CLOUDY    71  61  71 SW5       29.81S
SAGINAW HB     CLOUDY    70  59  68 NE5       29.79F
$$
MIZ043>046-050>051-056>058-064>065-071>073-077>080-301800-
SOUTHWEST LOWER MICHIGAN

CITY           SKY/WX    TMP DP  RH WIND       PRES   REMARKS
BATTLE CREEK   CLOUDY    69  62  78 S9        29.81S
BENTON HARBOR  PTSUNNY   66  60  81 W8        29.82R
BIG RAPIDS     LGT RAIN  65  59  79 CALM      29.79S
COLDWATER      CLOUDY    66  62  85 SW3       29.81S
FREMONT        CLOUDY    64  62  96 E3        29.79S
HOLLAND        CLOUDY    68  61  78 W7        29.80S
GRAND RAPIDS   CLOUDY    64  62  93 E3        29.79S FOG
IONIA          DRIZZLE   67  60  76 S7        29.79S
KALAMAZOO      CLOUDY    69  62  78 SW7       29.80F
LUDINGTON      LGT RAIN  66  62  86 E3        29.80S
MARSHALL       CLOUDY    69  62  77 SW5       29.80S
MOUNT PLEASANT CLOUDY    69  58  69 E3        29.79F
MUSKEGON       FOG       63  61  93 W3        29.79S VSB 1
SOUTH HAVEN    CLOUDY    65  60  85 W8        29.81R
$$
MIZ016>042-301800-
NORTHERN LOWER MICHIGAN

CITY           SKY/WX    TMP DP  RH WIND       PRES   REMARKS
ALPENA         CLOUDY    71  59  65 SE8       29.81S
BEAVER ISLAND  FOG       57  57  97 NW7       29.82S VSB 3/4
BELLAIRE       CLOUDY    69  58  69 SW3       29.80S
CADILLAC       CLOUDY    65  59  82 E3        29.81S
CHARLEVOIX     CLOUDY    65  62  92 W9        29.83S
FRANKFORT      CLOUDY    68  58  70 NW9       29.81S
GAYLORD        CLOUDY    69  55  60 S7        29.81F
GRAYLING       DRIZZLE   65  61  85 NE5       29.82F
HARBOR SPRINGS HVY RAIN  63  61  94 SW3       29.81R
HOUGHTON LAKE  CLOUDY    67  59  75 S6        29.82F
MANISTEE       PTSUNNY   64  59  82 N9        29.81S
OSCODA         CLOUDY    67  58  73 E6        29.82S
PELLSTON       LGT RAIN  66  63  90 NW8       29.80S FOG
ROGERS CITY    PTSUNNY   68  59  73 E6        29.81F
TRAVERSE CITY  CLOUDY    68  60  75 E5        29.79F
$$
MIZ007>008-015-301800-
EASTERN UPPER MICHIGAN

CITY           SKY/WX    TMP DP  RH WIND       PRES   REMARKS
KINROSS        CLOUDY    64  59  82 NW7G17    29.79F THUNDER
MACKINAC ISLAN CLOUDY    69  56  63 NE6       29.80S
NEWBERRY       CLOUDY    58  58  99 W6        29.82S FOG
S. S. MARIE    PTSUNNY   67  60  78 NW6       29.79F THUNDER
MUNISING         N/A     47  44  90 NW13G22   29.88R
$$
MIZ004>006-011>014-085-301800-
CENTRAL UPPER MICHIGAN

CITY           SKY/WX    TMP DP  RH WIND       PRES   REMARKS
MANISTIQUE     CLOUDY    50  47  89 NW10      29.84S
ESCANABA       CLOUDY    57  50  77 N13G20    29.85S
MENOMINEE      CLOUDY    63  52  67 N10       29.84S
SAWYER-GWINN   CLOUDY    48  45  87 N13       29.90R
$$
MIZ001>003-009>011-084-301800-
WESTERN UPPER MICHIGAN

CITY           SKY/WX    TMP DP  RH WIND       PRES   REMARKS
IRON MOUNTAIN  CLOUDY    61  51  70 NW15      29.87S
HOUGHTON       CLOUDY    49  41  74 N14G20    29.97R
COPPER HARBOR    N/A     45  41  86 N15       29.96R
IRONWOOD       CLOUDY    52  48  87 N9        29.96S
$$

ABBREVIATIONS USED IN REMARKS
   TC - TEMPERATURE IN CELSIUS
  WCI - WIND CHILL INDEX
   HX - HEAT INDEX
  VSB - VISIBILITY



USA.gov is the U.S. government's official web portal to all federal, state and local government web resources and services.